sat.trackr.live / text

‹ back to catalog

CENTISPACE-1 S3

NORAD 53757 · 2022-108A

PAYLOAD ACTIVE UNKNOWN

§ Identity

Operator
Country
PRC
Launch date
2022-09-06
Launch site
JSC
Launch vehicle
Mass (kg)
RCS (m²)

External: N2YO · Heavens-Above · Gunter

§ Orbital elements

Epoch: 2026-09-20T21:30:33.860736Z

Period
98.54 min
Inclination
53.5345°
Eccentricity
0.0008185
Mean motion
14.61332689 rev/d
Perigee alt
683.1 km
Apogee alt
694.7 km
Semi-major
7,067.0 km
B*
7.5588e-5
RAAN
19.4663°
Arg perigee
233.2666°
Mean anomaly
126.7558°
Rev number
21,552

§ Raw data

CENTISPACE-1 S31 53757U 22108A   26263.89622524  .00000187  00000+0  75588-4 0  99992 53757  53.5345  19.4663 0008185 233.2666 126.7558 14.61332689215525

JSON: /api/v1/satellites/53757 · /tle

For live sub-satellite position, see the globe view (requires WebGL).

§ Visibility from observer

Set your observer location to see the next 7 days of passes ≥ 10°. The values pass through the URL so the page stays shareable.

No JS? Fill the form by hand. The geolocation button needs JavaScript.

§ Radio — SatNOGS DB

ModeDescriptionDownlinkUplink
FM GNSS B1C 1.575 GHz
FM GNSS B2A 1.176 GHz

2 transmitters · refreshed weekly from db.satnogs.org